Flag for Germany Weather past 2 weeks in Fehmarn (Puttgarden), Schleswig-Holstein, Germany

Now
55 °F

Overcast.


Feels Like: 53 °F
Forecast: 52 / 62 °F
Wind: 7 mph from Southwest

Location: Westermarkelsdorf

Current Time: May 4, 2015 at 12:03:39 PM

Latest Report: May 4, 2015 at 10:00 AM


Visibility: 6 mi

Pressure: 29.66 "Hg

Humidity: 89%

Dew point: 52 °F

Location of Fehmarn (Puttgarden)Location

Historic Weather in Fehmarn (Puttgarden) — Graph

°F

Fehmarn (Puttgarden) temperature yesterday

Maximum temperature yesterday: 57 °F (at 3:00 PM)
Minimum temperature yesterday: 38 °F (at 1:00 AM)
Average temperature yesterday: 49 °F

Past Weeks' High & Low Weather Summary

 TemperatureHumidityPressure
High57 °F (May 3, 3:00 PM)100% (Apr 24, 4:00 AM)30.35 "Hg (Apr 24, 4:00 AM)
Low38 °F (May 3, 1:00 AM)44% (Apr 29, 4:00 PM)29.54 "Hg (May 4, 2:00 AM)
Average48 °F79%29.94 "Hg
* Reported Apr 19 10:00 AM — May 4 10:00 AM, Fehmarn (Puttgarden), Weather by CustomWeather, © 2015

Note: Actual official high and low records may vary slightly from our data, if they occured in-between our weather recording intervals... More about our weather records

Advertising

Fehmarn (Puttgarden) weather history for previous 24 hours

 ConditionsComfort  
Time TempWeatherWind HumidityBarometerVisibility
10:00 AM
Mon, May 4
55 °FOvercast.7 mph89%29.66 "Hg6 mi
9:00 AM54 °FOvercast.7 mph91%29.64 "Hg7 mi
8:00 AM54 °FOvercast.7 mph92%29.62 "Hg6 mi
7:00 AM54 °FOvercast.7 mph95%29.59 "Hg4 mi
6:00 AM55 °FFog.6 mph95%29.57 "Hg3 mi
5:00 AM56 °FFog.6 mph97%29.56 "Hg4 mi
4:00 AM54 °FFog.3 mph99%29.55 "Hg3 mi
3:00 AM52 °FLow clouds.6 mph99%29.54 "Hg3 mi
2:00 AM50 °FLight freezing rain. Low clouds.8 mph99%29.54 "Hg2 mi
1:00 AM49 °FRain. Overcast.9 mph96%29.56 "Hg1 mi
12:00 AM49 °FLight rain. Overcast.12 mph93%29.58 "Hg3 mi
10:00 PM
Sun, May 3
49 °FLight rain. Overcast.10 mph85%29.65 "Hg11 mi
9:00 PM49 °FLight rain. Overcast.12 mph85%29.66 "Hg6 mi
8:00 PM51 °FOvercast.12 mph81%29.67 "Hg14 mi
7:00 PM52 °FLight rain. Overcast.12 mph73%29.68 "Hg19 mi
6:00 PM53 °FOvercast.12 mph72%29.71 "Hg19 mi
4:00 PM57 °FSunny.10 mph63%29.78 "Hg7 mi
3:00 PM57 °FScattered clouds.10 mph64%29.80 "Hg7 mi
2:00 PM55 °FPassing clouds.10 mph65%29.82 "Hg5 mi
1:00 PM55 °FPassing clouds.8 mph66%29.84 "Hg9 mi
12:00 PM54 °FPassing clouds.7 mph68%29.85 "Hg7 mi
Weather by CustomWeather, © 2015

See weather overviewHow to use our weather pages